Tracking 27420 objects as of 10-Jun-2023
HD Live streaming from Space Station
objects crossing your sky now

TITAN 3C TRANSTAGE R/B

Track TITAN 3C TRANSTAGE R/B now!


NORAD ID: 8751
Int'l Code: 1976-023F
Perigee: 35,818.2 km
Apogee: 36,877.3 km
Inclination: 19.5 °
Period: 1,464.5 minutes
Semi major axis: 42718 km
RCS: 2.1664 m2 (large)
Launch date: March 15, 1976
Source: United States (US)
Launch site: AIR FORCE EASTERN TEST RANGE (AFETR)

Note: This is a ROCKET BODY
Your satellite tracking list
Your tracking list is empty




NASA's NSSDC Master Catalog

Two Line Element Set (TLE):
1 08751U 76023F   23160.03994178 -.00000286  00000-0  00000-0 0  9999
2 08751  19.5250  56.7328 0123959  72.3993 107.3336  0.98327475172354
Source of the keplerian elements: AFSPC